2023/03/01 00:00:00,102.9, 1.0
2023/03/01 00:10:00,102.8, 1.3
2023/03/01 00:20:00,102.8, 0.8
2023/03/01 00:30:00,102.8, 1.0
2023/03/01 00:40:00,102.8, 0.7
2023/03/01 00:50:00,102.8, 0.8
2023/03/01 01:00:00,102.8, 0.8
2023/03/01 01:10:00,102.8, 0.5
2023/03/01 01:20:00,102.8, 0.8
2023/03/01 01:30:00,102.7, 1.1
2023/03/01 01:40:00,102.7, 1.0
2023/03/01 01:50:00,102.8, 1.0
2023/03/01 02:00:00,102.8, 0.9
2023/03/01 02:10:00,102.8, 0.7
2023/03/01 02:20:00,102.8, 0.8
2023/03/01 02:30:00,102.8, 1.1
2023/03/01 02:40:00,102.8, 1.0
2023/03/01 02:50:00,102.8, 1.1
2023/03/01 03:00:00,102.8, 1.1
2023/03/01 03:10:00,102.8, 1.1
2023/03/01 03:20:00,102.8, 1.5
2023/03/01 03:30:00,102.8, 1.1
2023/03/01 03:40:00,102.8, 1.1
2023/03/01 03:50:00,102.8, 1.3
2023/03/01 04:00:00,102.8, 1.2
2023/03/01 04:10:00,102.8, 1.4
2023/03/01 04:20:00,102.8, 1.0
2023/03/01 04:30:00,102.7, 1.1
2023/03/01 04:40:00,102.7, 0.8
2023/03/01 04:50:00,102.7, 1.1
2023/03/01 05:00:00,102.7, 0.7
2023/03/01 05:10:00,102.7, 1.0
2023/03/01 05:20:00,102.7, 0.7
2023/03/01 05:30:00,102.7, 0.7
2023/03/01 05:40:00,102.7, 1.4
2023/03/01 05:50:00,102.7, 1.0
2023/03/01 06:00:00,102.7, 0.5
2023/03/01 06:10:00,102.7, 0.5
2023/03/01 06:20:00,102.7, 0.7
2023/03/01 06:30:00,102.7, 0.9
2023/03/01 06:40:00,102.8, 1.1
2023/03/01 06:50:00,102.7, 1.2
2023/03/01 07:00:00,102.7, 1.0
2023/03/01 07:10:00,102.7, 1.0
2023/03/01 07:20:00,102.7, 1.7
2023/03/01 07:30:00,102.6, 1.7
2023/03/01 07:40:00,102.7, 1.9
2023/03/01 07:50:00,102.7, 1.8
2023/03/01 08:00:00,102.6, 2.1
2023/03/01 08:10:00,102.6, 2.5
2023/03/01 08:20:00,102.6, 2.7
2023/03/01 08:30:00,102.6, 3.0
2023/03/01 08:40:00,102.4, 3.2
2023/03/01 08:50:00,102.5, 3.8
2023/03/01 09:00:00,102.5, 4.1
2023/03/01 09:10:00,102.5, 5.3
2023/03/01 09:20:00,102.5, 5.5
2023/03/01 09:30:00,102.4, 5.9
2023/03/01 09:40:00,102.4, 4.8
2023/03/01 09:50:00,102.3, 5.0
2023/03/01 10:00:00,102.3, 6.4
2023/03/01 10:10:00,102.0, 6.9
2023/03/01 10:20:00,101.7, 7.8
2023/03/01 10:30:00,101.5, 7.8
2023/03/01 10:40:00,101.3, 7.8
2023/03/01 10:50:00,100.7, 7.9
2023/03/01 11:00:00,100.8, 8.5
2023/03/01 11:10:00,101.2, 7.3
2023/03/01 11:20:00,101.2, 7.2
2023/03/01 11:30:00,101.3, 6.3
2023/03/01 11:40:00,101.3, 6.3
2023/03/01 11:50:00,101.3, 6.9
2023/03/01 12:00:00,101.2, 6.4
2023/03/01 12:10:00,101.3, 5.4
2023/03/01 12:20:00,101.3, 4.8
2023/03/01 12:30:00,101.3, 4.9
2023/03/01 12:40:00,101.3, 4.6
2023/03/01 12:50:00,101.1, 6.0
2023/03/01 13:00:00,101.1, 5.7
2023/03/01 13:10:00,100.3, 6.5
2023/03/01 13:20:00,100.2, 6.3
2023/03/01 13:30:00,100.2, 6.0
2023/03/01 13:40:00,100.2, 6.4
2023/03/01 13:50:00,100.2, 6.6
2023/03/01 14:00:00,100.3, 7.2
2023/03/01 14:10:00,100.4, 7.5
2023/03/01 14:20:00,100.3, 7.6
2023/03/01 14:30:00,100.2, 7.2
2023/03/01 14:40:00,99.5, 7.8
2023/03/01 14:50:00,99.0, 8.9
2023/03/01 15:00:00,98.4, 8.1
2023/03/01 15:10:00,98.6, 7.9
2023/03/01 15:20:00,98.6, 7.0
2023/03/01 15:30:00,98.5, 6.6
2023/03/01 15:40:00,98.5, 6.0
2023/03/01 15:50:00,98.3, 5.3
2023/03/01 16:00:00,98.3, 4.9
2023/03/01 16:10:00,98.4, 4.1
2023/03/01 16:20:00,98.2, 4.2
2023/03/01 16:30:00,98.2, 4.1
2023/03/01 16:40:00,98.2, 3.9
2023/03/01 16:50:00,98.2, 4.0
2023/03/01 17:00:00,98.2, 3.8
2023/03/01 17:10:00,98.2, 3.5
2023/03/01 17:20:00,98.2, 3.9
2023/03/01 17:30:00,98.2, 3.5
2023/03/01 17:40:00,98.2, 3.5
2023/03/01 17:50:00,98.2, 3.1
2023/03/01 18:00:00,98.2, 3.0
2023/03/01 18:10:00,98.2, 3.0
2023/03/01 18:20:00,98.1, 3.4
2023/03/01 18:30:00,98.1, 3.2
2023/03/01 18:40:00,98.1, 3.2
2023/03/01 18:50:00,98.1, 2.8
2023/03/01 19:00:00,98.0, 2.6
2023/03/01 19:10:00,98.2, 2.8
2023/03/01 19:20:00,98.4, 2.9
2023/03/01 19:30:00,98.4, 2.8
2023/03/01 19:40:00,98.4, 2.4
2023/03/01 19:50:00,98.9, 2.0
2023/03/01 20:00:00,98.7, 2.2
2023/03/01 20:10:00,98.4, 1.9
2023/03/01 20:20:00,98.4, 2.0
2023/03/01 20:30:00,98.5, 1.9
2023/03/01 20:40:00,98.4, 2.0
2023/03/01 20:50:00,98.3, 1.8
2023/03/01 21:00:00,98.2, 2.0
2023/03/01 21:10:00,98.1, 2.0
2023/03/01 21:20:00,98.0, 1.9
2023/03/01 21:30:00,98.1, 2.2
2023/03/01 21:40:00,98.1, 1.9
2023/03/01 21:50:00,98.1, 1.9
2023/03/01 22:00:00,98.1, 1.4
2023/03/01 22:10:00,98.1, 1.7
2023/03/01 22:20:00,98.0, 1.4
2023/03/01 22:30:00,98.1, 1.7
2023/03/01 22:40:00,98.1, 1.4
2023/03/01 22:50:00,98.1, 1.5
2023/03/01 23:00:00,98.1, 1.5
2023/03/01 23:10:00,98.2, 1.4
2023/03/01 23:20:00,98.2, 1.4
2023/03/01 23:30:00,98.2, 1.3
2023/03/01 23:40:00,98.2, 1.2
2023/03/01 23:50:00,98.2, 1.4
